Regional Weather Roundup
Issued by NWS Albany, NY

Home | Current Version | Previous Version | Text Only | Print | Product List | Glossary On
Versions: 1 2 3 4 5 6 7 8 9 10 11 12 13 14 15 16 17 18 19 20 21 22 23 24 25 26 27 28 29 30 31 32 33 34 35 36 37 38 39 40 41 42 43 44 45 46 47 48 49 50
942
ASUS41 KALY 042110
RWRALY

NEW YORK STATE HOURLY WEATHER ROUNDUP
NATIONAL WEATHER SERVICE ALBANY NY
500 PM EDT WED MAY 04 2016

NOTE: "FAIR" INDICATES FEW OR NO CLOUDS BELOW 12,000 FEET WITH NO
SIGNIFICANT WEATHER AND/OR NO OBSTRUCTIONS TO VISIBILITY.

NYZ032-033-038>043-046>054-057>066-NYZ062>081-082-084-042200-
EAST


CITY           SKY/WX    TMP DP  RH WIND       PRES   REMARKS
ALBANY         CLOUDY    50  46  86 E3        29.80R FOG
GLENS FALLS    LGT RAIN  50  45  83 E6        29.81S
POUGHKEEPSIE   CLOUDY    52  48  86 NE6       29.75F FOG
MONTGOMERY     LGT RAIN  50  48  93 NE8       29.74S FOG
WHITE PLAINS   LGT RAIN  50  47  89 NE7       29.71F FOG
ISLIP          TSTM      48  45  89 E15       29.71F FOG
NEW YORK CITY  LGT RAIN  52  49  89 NE15      29.72F
CENTRAL PARK   CLOUDY    50  45  83 VRB5      29.74F
$$

NYZ005>009-017-018-044>046-055-056-042200-
CENTRAL


CITY           SKY/WX    TMP DP  RH WIND       PRES   REMARKS
FULTON         CLOUDY    62  47  57 NE7       29.69S
SYRACUSE       LGT RAIN  54  51  90 E9        29.70R
ROME           CLOUDY    55  47  74 E14G20    29.75R
ELMIRA         CLOUDY    58  50  75 NE3       29.66F
BINGHAMTON     CLOUDY    50  46  86 SE10      29.69S
MONTICELLO     CLOUDY    45  45 100 E12       29.74S
$$

NYZ026>034-041>043-087-042200-
NORTH


CITY           SKY/WX    TMP DP  RH WIND       PRES   REMARKS
WATERTOWN      MOSUNNY   57  48  72 NE15      29.71S
FORT DRUM      NOT AVBL
MASSENA        LGT RAIN  53  47  79 NE13      29.78S
SARANAC LAKE   CLOUDY    52  43  71 S7        29.74S
PLATTSBURGH    CLOUDY    55  43  63 SE9       29.80R
$$

NYZ001>004-010>016-019>021-085-042200-
WEST


CITY           SKY/WX    TMP DP  RH WIND       PRES   REMARKS
NIAGARA FALLS  PTSUNNY   62  40  44 NE13      29.66S
BUFFALO        PTSUNNY   60  41  49 NE12      29.66S
DUNKIRK        MOSUNNY   61  41  47 NE10      29.65S
JAMESTOWN      PTSUNNY   57  37  47 NW7       29.63F
WELLSVILLE     CLOUDY    53  44  71 S17G24    29.67R
ROCHESTER      PTSUNNY   60  46  59 E12       29.69R
PENN YAN       CLOUDY    60  44  55 NE5       29.67S
$$

             KEY
       WCI = WIND CHILL INDEX
       VSB = VISIBILITY
       HX  = HEAT INDEX
$$




USA.gov is the U.S. government's official web portal to all federal, state and local government web resources and services.